TimeAKDT,TemperatureF,Dew PointF,Humidity,Sea Level PressureIn,VisibilityMPH,Wind Direction,Wind SpeedMPH,Gust SpeedMPH,PrecipitationIn,Events,Conditions,WindDirDegrees,DateUTC
12:53 AM,-4.0,-8.0,83,30.22,10.0,SSE,9.2,-,N/A,,Clear,160,2013-05-19 08:53:00
1:53 AM,-2.9,-7.1,82,30.22,10.0,South,12.7,-,N/A,,Clear,180,2013-05-19 09:53:00
2:53 AM,-2.9,-6.0,87,30.23,10.0,South,12.7,-,N/A,,Clear,170,2013-05-19 10:53:00
3:53 AM,-6.0,-9.0,87,30.24,10.0,SSE,10.4,-,N/A,,Clear,160,2013-05-19 11:53:00
4:53 AM,-2.9,-7.1,82,30.25,10.0,South,9.2,-,N/A,,Clear,180,2013-05-19 12:53:00
5:53 AM,1.0,-5.1,75,30.25,10.0,South,11.5,-,N/A,,Clear,180,2013-05-19 13:53:00
6:53 AM,6.1,-0.9,73,30.26,10.0,South,17.3,-,N/A,,Overcast,180,2013-05-19 14:53:00
7:53 AM,8.1,1.9,76,30.26,10.0,South,16.1,-,N/A,,Overcast,170,2013-05-19 15:53:00
8:53 AM,10.9,5.0,77,30.27,10.0,South,13.8,-,N/A,,Scattered Clouds,180,2013-05-19 16:53:00
9:53 AM,15.1,9.0,77,30.28,10.0,South,17.3,-,N/A,,Overcast,180,2013-05-19 17:53:00
10:53 AM,17.1,10.9,77,30.30,10.0,South,13.8,-,N/A,,Overcast,180,2013-05-19 18:53:00
11:53 AM,19.0,14.0,81,30.30,9.0,South,15.0,-,N/A,,Clear,180,2013-05-19 19:53:00
12:53 PM,21.9,16.0,78,30.31,10.0,South,13.8,-,N/A,,Clear,170,2013-05-19 20:53:00
1:53 PM,24.1,18.0,77,30.32,10.0,South,12.7,-,N/A,,Clear,170,2013-05-19 21:53:00
2:53 PM,26.1,19.9,78,30.32,10.0,South,12.7,-,0.03,,Clear,170,2013-05-19 22:53:00
3:53 PM,28.0,21.0,75,30.32,10.0,South,16.1,-,0.04,,Clear,170,2013-05-19 23:53:00
4:53 PM,28.0,21.9,78,30.32,10.0,SSE,17.3,-,0.02,,Clear,160,2013-05-20 00:53:00
5:53 PM,28.0,23.0,81,30.32,10.0,SSE,13.8,-,0.01,,Clear,160,2013-05-20 01:53:00
6:53 PM,28.0,24.1,85,30.32,10.0,SSE,13.8,-,0.01,,Mostly Cloudy,160,2013-05-20 02:53:00
7:53 PM,28.9,25.0,85,30.32,10.0,South,15.0,-,N/A,,Overcast,170,2013-05-20 03:53:00
8:53 PM,28.0,25.0,88,30.33,10.0,South,15.0,-,N/A,,Overcast,170,2013-05-20 04:53:00
9:53 PM,30.0,26.1,85,30.33,10.0,South,13.8,-,N/A,,Overcast,170,2013-05-20 05:53:00
10:53 PM,30.9,27.0,85,30.34,10.0,South,11.5,-,N/A,,Overcast,170,2013-05-20 06:53:00
11:53 PM,30.9,27.0,85,30.35,10.0,South,15.0,-,N/A,,Overcast,180,2013-05-20 07:53:00